| time (UTC) | temp F | wind direction | speed MPH | gust MPH | rain 1hr in | rain 24hr in | rain mn in | humidity % | barometer mb |
| 20260831153127 | 60 | 257 | 1.0 | 4.0 | 0.00 | 0.00 | 0.00 | 82 | 1012.1 |
| 20260831151552 | 59 | 237 | 2.0 | 4.0 | 0.00 | 0.00 | 0.00 | 84 | 1012.1 |
| 20260831150047 | 58 | 269 | 1.0 | 3.0 | 0.00 | 0.00 | 0.00 | 86 | 1012.1 |
| 20260831144543 | 57 | 278 | 0.0 | 3.0 | 0.00 | 0.00 | 0.00 | 86 | 1011.8 |
| 20260831143042 | 56 | 360 | 0.0 | 0.0 | 0.00 | 0.00 | 0.00 | 86 | 1011.6 |
| 20260831141543 | 56 | 360 | 0.0 | 0.0 | 0.00 | 0.00 | 0.00 | 85 | 1011.5 |
| 20260831140032 | 56 | 360 | 0.0 | 0.0 | 0.00 | 0.00 | 0.00 | 85 | 1011.2 |
| 20260831134530 | 56 | 360 | 0.0 | 0.0 | 0.00 | 0.00 | 0.00 | 85 | 1011.0 |
| 20260831133031 | 55 | 360 | 0.0 | 0.0 | 0.00 | 0.00 | 0.00 | 85 | 1010.8 |
| 20260831131529 | 55 | 360 | 0.0 | 0.0 | 0.00 | 0.00 | 0.00 | 85 | 1010.8 |
| 20260831130025 | 55 | 360 | 1.0 | 3.0 | 0.00 | 0.00 | 0.00 | 84 | 1010.6 |
| 20260831124524 | 55 | 360 | 0.0 | 0.0 | 0.00 | 0.00 | 0.00 | 83 | 1010.4 |
| 20260831123038 | 54 | 360 | 0.0 | 0.0 | 0.00 | 0.00 | 0.00 | 83 | 1010.2 |
| 20260831121527 | 54 | 360 | 0.0 | 0.0 | 0.00 | 0.00 | 0.00 | 81 | 1010.1 |
| 20260831120032 | 55 | 360 | 0.0 | 0.0 | 0.00 | 0.00 | 0.00 | 80 | 1010.1 |
| 20260831114519 | 55 | 360 | 0.0 | 0.0 | 0.00 | 0.00 | 0.00 | 80 | 1010.1 |
| 20260831113014 | 56 | 360 | 0.0 | 0.0 | 0.00 | 0.00 | 0.00 | 80 | 1010.1 |
| 20260831111515 | 56 | 360 | 0.0 | 0.0 | 0.00 | 0.00 | 0.00 | 81 | 1010.2 |
| 20260831110011 | 56 | 360 | 0.0 | 0.0 | 0.00 | 0.00 | 0.00 | 80 | 1010.2 |
| 20260831104521 | 57 | 360 | 0.0 | 0.0 | 0.00 | 0.00 | 0.00 | 78 | 1010.0 |
| 20260831103006 | 57 | 360 | 0.0 | 0.0 | 0.00 | 0.00 | 0.00 | 78 | 1010.2 |
| 20260831101510 | 58 | 313 | 0.0 | 0.0 | 0.00 | 0.00 | 0.00 | 77 | 1010.1 |
| 20260831100008 | 58 | 313 | 0.0 | 0.0 | 0.00 | 0.00 | 0.00 | 76 | 1010.1 |
| 20260831094502 | 59 | 360 | 0.0 | 0.0 | 0.00 | 0.00 | 0.00 | 76 | 1010.0 |
| 20260831091603 | 60 | 360 | 0.0 | 0.0 | 0.00 | 0.00 | 0.00 | 74 | 1010.0 |
| 20260831090057 | 61 | 360 | 0.0 | 0.0 | 0.00 | 0.00 | 0.00 | 73 | 1010.0 |
| 20260831084557 | 61 | 360 | 0.0 | 0.0 | 0.00 | 0.00 | 0.00 | 73 | 1010.0 |
| 20260831081557 | 62 | 360 | 0.0 | 0.0 | 0.00 | 0.00 | 0.00 | 72 | 1010.2 |
| 20260831080048 | 63 | 360 | 0.0 | 3.0 | 0.00 | 0.00 | 0.00 | 72 | 1010.4 |
| 20260831074542 | 63 | 360 | 0.0 | 2.0 | 0.00 | 0.00 | 0.00 | 70 | 1010.4 |
| 20260831071541 | 64 | 360 | 0.0 | 0.0 | 0.00 | 0.00 | 0.00 | 69 | 1010.4 |
| 20260831070105 | 64 | 360 | 0.0 | 0.0 | 0.00 | 0.00 | 0.00 | 68 | 1010.3 |
| 20260831064537 | 65 | 250 | 0.0 | 0.0 | 0.00 | 0.00 | 0.00 | 68 | 1010.4 |
| 20260831061533 | 66 | 360 | 0.0 | 2.0 | 0.00 | 0.00 | 0.00 | 66 | 1010.3 |
| 20260831060030 | 66 | 360 | 0.0 | 3.0 | 0.00 | 0.00 | 0.00 | 65 | 1010.3 |
| 20260831054528 | 67 | 360 | 2.0 | 4.0 | 0.00 | 0.00 | 0.00 | 63 | 1010.3 |
| 20260831051537 | 69 | 360 | 3.0 | 9.0 | 0.00 | 0.00 | 0.00 | 60 | 1010.5 |
| 20260831050022 | 70 | 238 | 5.0 | 10.0 | 0.00 | 0.00 | 0.00 | 59 | 1010.4 |
| 20260831044519 | 71 | 230 | 6.0 | 11.0 | 0.00 | 0.00 | 0.00 | 58 | 1010.4 |
| 20260831041524 | 73 | 243 | 7.0 | 13.0 | 0.00 | 0.00 | 0.00 | 53 | 1010.2 |
| 20260831040035 | 74 | 207 | 8.0 | 12.0 | 0.00 | 0.00 | 0.00 | 52 | 1009.9 |
| 20260831034513 | 75 | 241 | 7.0 | 12.0 | 0.00 | 0.00 | 0.00 | 49 | 1009.7 |
| 20260831031511 | 77 | 244 | 5.0 | 9.0 | 0.00 | 0.00 | 0.00 | 44 | 1009.7 |
| 20260831030011 | 78 | 238 | 4.0 | 8.0 | 0.00 | 0.00 | 0.00 | 43 | 1009.6 |
| 20260831024510 | 80 | 246 | 3.0 | 8.0 | 0.00 | 0.00 | 0.00 | 41 | 1009.4 |
| 20260831021536 | 85 | 232 | 3.0 | 6.0 | 0.00 | 0.00 | 0.00 | 38 | 1009.1 |
| 20260831020011 | 86 | 281 | 2.0 | 5.0 | 0.00 | 0.00 | 0.00 | 34 | 1009.0 |
| 20260831014513 | 87 | 247 | 3.0 | 6.0 | 0.00 | 0.00 | 0.00 | 34 | 1008.8 |
| 20260831011511 | 89 | 284 | 2.0 | 7.0 | 0.00 | 0.00 | 0.00 | 31 | 1009.2 |
| 20260831010026 | 90 | 245 | 2.0 | 7.0 | 0.00 | 0.00 | 0.00 | 30 | 1009.2 |
| 20260831004510 | 91 | 269 | 3.0 | 6.0 | 0.00 | 0.00 | 0.00 | 29 | 1009.2 |
| 20260831001503 | 89 | 249 | 3.0 | 6.0 | 0.00 | 0.00 | 0.00 | 31 | 1009.3 |
| 20260831000001 | 89 | 246 | 4.0 | 10.0 | 0.00 | 0.00 | 0.00 | 30 | 1009.4 |
| 20260830234501 | 90 | 287 | 3.0 | 8.0 | 0.00 | 0.00 | 0.00 | 30 | 1009.5 |
| 20260830231557 | 90 | 268 | 1.0 | 10.0 | 0.00 | 0.00 | 0.00 | 30 | 1009.7 |
| 20260830230056 | 89 | 217 | 2.0 | 9.0 | 0.00 | 0.00 | 0.00 | 31 | 1009.9 |
| 20260830224602 | 89 | 226 | 3.0 | 10.0 | 0.00 | 0.00 | 0.00 | 32 | 1010.1 |
| 20260830221551 | 89 | 251 | 2.0 | 9.0 | 0.00 | 0.00 | 0.00 | 34 | 1010.3 |
| 20260830220100 | 88 | 272 | 0.0 | 13.0 | 0.00 | 0.00 | 0.00 | 35 | 1010.4 |
| 20260830214552 | 87 | 348 | 1.0 | 11.0 | 0.00 | 0.00 | 0.00 | 35 | 1010.9 |
| 20260830211530 | 87 | 217 | 1.0 | 11.0 | 0.00 | 0.00 | 0.00 | 37 | 1011.4 |
| 20260830170151 | 68 | 360 | 4.0 | 10.0 | 0.00 | 0.00 | 0.00 | 63 | 1012.9 |
| 20260830164637 | 67 | 234 | 6.0 | 12.0 | 0.00 | 0.00 | 0.00 | 63 | 1012.9 |